Theta_e
292 286 283 286 287 286 285 283 282 284 288 287 287 289 292 294 297 302 304 308 310 312 319 324 327 327 326 327 326 327 328 328 326 326 324 323 323 325 326 328 330 329 324 319
287 282 287 289 288 286 284 282 281 285 287 286 285 285 289 294 295 299 304 307 309 312 316 320 325 325 325 326 326 326 327 327 327 327 327 325 324 325 325 324 323 323 319 315
283 285 289 287 285 283 284 282 281 281 285 287 285 284 286 291 294 298 301 306 309 312 312 316 321 324 324 324 325 325 325 325 326 327 326 324 322 320 318 317 315 313 312 309
285 289 287 286 284 285 280 286 284 283 281 277 286 276 284 288 290 295 300 303 307 310 314 315 318 323 322 324 326 326 324 325 326 327 323 321 316 313 314 314 314 309 307 304
282 285 284 282 283 285 283 287 285 284 282 281 280 278 283 289 288 291 298 303 306 310 313 315 319 323 322 325 326 325 324 325 326 326 323 321 318 318 318 315 309 305 304 302
287 290 287 285 286 287 287 285 285 285 282 274 279 279 280 285 290 293 297 301 307 310 312 314 319 324 324 323 326 327 325 324 326 325 322 319 320 320 315 308 305 303 300 299
281 283 287 288 284 287 285 282 275 273 273 272 282 279 282 289 292 296 297 301 305 310 313 314 316 321 322 320 323 323 323 321 323 324 322 321 323 319 313 308 306 301 298 297
274 272 282 287 283 282 283 282 276 269 271 275 283 278 283 290 293 297 301 303 307 309 312 316 319 320 322 320 322 322 322 321 321 323 321 323 324 316 314 310 306 301 299 298
274 275 285 285 286 285 283 280 286 279 281 278 282 284 289 293 294 295 297 302 306 309 312 315 320 321 323 320 321 322 321 320 320 321 322 323 324 317 315 310 306 303 298 296
279 274 282 285 287 286 286 288 278 279 273 273 280 284 285 291 295 299 297 303 305 308 311 314 320 321 323 322 321 323 322 321 321 321 321 319 316 313 308 304 301 297 296 292
281 279 278 283 283 282 283 282 282 282 280 275 278 284 293 294 298 299 300 304 307 309 310 314 319 321 321 320 320 320 321 320 319 320 319 314 309 304 301 299 298 293 293 291
282 278 274 278 285 288 288 285 283 278 276 279 279 284 293 294 296 300 303 305 308 311 313 316 313 312 310 311 314 314 317 315 314 315 309 302 299 297 296 294 293 292 291 291
282 277 273 279 283 285 281 283 286 285 284 280 282 284 292 292 293 298 301 300 300 300 299 300 299 297 297 297 297 296 296 296 297 297 296 295 294 293 293 291 292 292 291 292
284 278 275 272 276 279 279 280 283 285 279 281 282 282 284 286 290 291 293 294 294 294 294 294 294 293 294 294 294 293 293 294 294 294 293 292 292 292 292 292 292 292 292 291
281 274 277 278 279 281 280 278 281 278 279 280 281 279 282 285 289 291 292 292 292 291 291 292 292 292 293 293 293 294 294 295 295 293 292 291 292 292 292 291 291 290 290 290
282 275 277 276 283 283 279 278 279 279 277 279 282 281 286 286 290 290 290 290 290 290 290 291 291 292 292 292 292 293 293 293 293 292 292 292 291 290 289 288 288 287 287 286
278 277 275 273 280 280 277 275 277 280 279 278 276 282 285 282 285 286 288 289 289 290 290 290 291 291 292 292 293 293 293 293 292 291 290 288 288 287 286 286 285 284 284 284
278 277 277 274 279 273 279 281 281 278 278 279 280 283 284 283 283 283 287 287 288 290 290 291 292 292 293 293 293 293 292 291 290 288 287 287 286 285 284 284 283 283 283 283
282 278 275 275 276 281 280 278 276 276 277 279 278 281 285 286 286 281 283 285 285 286 287 288 290 290 289 289 289 287 286 286 286 286 286 285 285 284 283 283 283 282 283 282
282 281 277 277 276 271 276 279 281 283 274 280 279 278 279 285 276 276 280 281 281 282 282 282 283 283 283 284 284 282 281 282 281 282 283 284 285 284 284 284 284 283 282 282
277 278 276 277 278 277 279 279 284 272 271 280 279 278 277 274 276 278 279 278 278 278 278 278 276 275 276 280 280 278 279 278 280 281 280 280 281 281 282 282 281 281 281 281
276 275 275 277 273 270 280 279 274 277 280 280 279 279 277 276 276 275 275 275 275 275 275 275 273 272 273 275 276 275 274 277 278 277 277 277 278 278 279 280 280 281 281 281
276 277 275 277 276 281 281 279 281 281 278 279 279 279 278 276 275 276 275 275 274 274 274 274 273 272 271 272 272 272 272 275 275 275 275 275 276 277 277 277 278 279 279 279
281 282 279 280 282 280 279 281 280 280 279 279 279 278 278 276 275 274 274 273 272 272 272 272 271 270 269 270 269 270 271 274 274 273 273 274 274 275 275 276 276 278 275 276
281 280 279 281 283 284 281 279 278 278 280 278 277 277 276 275 274 274 273 272 272 271 271 270 269 268 267 268 268 267 269 271 273 272 272 273 273 273 273 274 275 274 275 276
280 278 280 279 281 281 278 277 277 275 275 276 276 274 274 275 273 272 271 270 270 269 269 268 267 267 266 266 265 266 267 268 269 270 271 270 271 271 271 271 271 275 275 276
Wind_Speed
12 10 15 19 19 23 21 24 25 21 19 19 20 21 19 24 26 19 14 21 23 19 19 18 20 18 18 17 17 19 19 16 11 10 10 9 8 6 5 4 5 9 8 9
14 19 23 22 21 22 25 25 26 25 23 21 23 24 22 23 21 26 22 22 18 21 23 21 21 18 18 19 17 17 18 17 14 10 10 9 7 6 6 5 6 8 9 9
20 22 21 22 19 22 27 27 25 24 20 20 20 23 23 25 25 25 23 24 21 21 20 24 22 20 19 20 20 20 17 17 16 14 11 10 7 6 6 7 7 7 8 7
17 17 17 22 25 24 27 25 24 23 18 16 16 18 23 24 27 27 28 25 23 21 20 20 21 20 20 21 19 19 16 16 16 18 14 17 12 11 7 8 7 7 7 6
21 25 23 22 28 24 27 18 22 22 19 18 22 15 16 21 25 29 28 24 26 23 20 22 19 20 21 21 19 19 18 18 18 18 15 13 15 10 9 8 10 8 7 6
22 21 22 27 26 22 16 17 11 19 14 15 23 19 16 19 20 26 28 27 24 23 22 20 18 19 18 20 18 18 20 18 19 19 17 18 17 14 11 10 9 7 5 5
26 16 15 4 9 4 9 12 7 8 10 13 18 18 19 15 26 23 27 26 25 23 20 21 20 18 17 19 19 17 19 20 19 19 19 18 17 16 16 15 10 11 7 5
13 25 9 2 6 9 10 11 5 7 11 13 17 11 15 28 27 19 15 25 25 23 22 21 20 18 19 20 21 19 20 20 20 20 19 16 16 10 10 12 10 8 7 7
14 13 18 18 19 8 9 11 15 5 9 10 8 13 20 22 22 24 19 17 22 22 23 22 21 19 19 20 23 20 20 19 20 19 16 16 13 12 10 12 10 9 8 7
7 20 11 19 2 4 6 7 8 4 6 6 8 11 5 20 16 16 21 18 17 18 20 20 18 17 16 18 18 18 17 18 18 17 15 12 12 10 9 10 12 11 11 10
16 6 17 16 6 2 4 4 8 8 9 6 1 4 10 12 2 7 12 13 13 15 14 16 15 14 13 12 13 14 14 14 15 15 13 11 10 10 11 9 10 11 13 11
9 7 9 19 11 3 3 4 16 6 6 7 8 2 11 11 10 7 7 5 10 12 7 7 9 10 7 6 5 6 8 10 9 10 10 10 12 11 11 11 11 11 11 9
13 5 10 5 1 8 4 10 10 16 8 7 9 4 15 14 11 10 4 4 9 11 13 13 11 10 10 9 8 9 9 9 9 10 11 10 10 11 11 13 14 13 12 6
15 6 8 9 14 13 10 19 22 5 5 8 3 8 17 17 12 10 10 8 12 13 13 12 12 12 11 11 9 12 12 10 11 13 12 11 10 12 13 11 11 11 11 7
5 6 11 18 18 12 13 24 21 18 14 9 10 9 14 14 9 10 10 11 16 16 16 13 13 12 12 12 12 11 11 12 10 13 14 12 9 12 10 12 8 7 9 5
9 6 15 6 5 10 8 26 20 22 21 12 12 10 13 13 11 15 14 15 18 17 17 16 16 16 14 14 13 13 12 11 14 11 14 12 12 9 11 7 6 7 6 5
8 8 10 7 14 14 3 24 15 11 19 13 10 9 11 18 18 17 16 19 19 18 18 17 15 16 12 16 15 13 11 12 16 11 12 12 9 9 8 7 7 6 5 4
11 13 4 8 13 5 5 17 10 13 24 27 18 13 11 13 23 25 20 18 20 20 19 18 16 17 16 14 18 14 15 15 14 12 11 9 8 8 7 5 5 5 3 2
6 6 6 5 6 2 12 22 12 10 17 28 22 18 9 8 28 28 23 20 20 20 18 19 18 19 20 19 16 16 16 14 14 12 10 9 7 7 6 6 6 4 3 3
7 5 4 5 5 11 15 27 27 8 18 29 22 20 18 12 29 11 17 20 23 22 20 18 18 19 20 15 15 19 15 16 15 13 12 11 10 9 8 6 6 4 4 4
8 5 10 11 6 4 21 30 16 13 9 20 18 15 19 19 11 7 16 21 20 20 21 17 20 18 16 14 13 18 15 17 11 11 10 11 10 9 8 7 5 5 5 4
7 8 7 7 8 9 26 13 12 8 10 13 16 16 17 15 16 17 20 20 21 21 21 20 18 18 16 16 14 16 18 11 10 10 11 11 11 9 8 9 7 7 8 8
5 5 5 8 5 5 9 8 10 10 8 12 13 13 14 17 19 18 18 19 19 20 17 16 16 17 16 16 16 16 13 12 11 11 12 11 10 11 10 11 11 9 10 8
3 7 2 2 6 7 11 10 13 12 13 13 15 15 15 17 16 17 16 15 15 16 16 13 14 17 17 16 17 15 13 10 11 12 12 11 12 11 11 8 8 8 10 9
3 7 5 3 4 2 11 13 12 10 10 13 15 16 15 15 17 16 15 15 15 15 14 14 15 15 16 14 15 14 14 12 11 10 11 10 9 11 10 10 9 9 10 12
3 3 3 3 5 3 5 9 10 10 12 13 13 15 16 15 15 14 15 13 13 14 12 13 14 13 12 12 12 13 13 12 10 10 9 9 8 8 8 8 8 15 17 17
Wind_Direction
245 247 252 258 251 250 262 268 275 277 276 277 268 271 261 238 242 254 220 242 224 223 217 189 196 192 192 196 190 191 185 180 184 176 177 178 177 179 180 176 168 163 160 162
273 256 261 270 265 258 259 260 260 266 262 264 268 266 262 270 254 231 232 238 246 224 215 195 193 189 187 193 198 198 192 181 189 187 184 169 160 171 164 156 173 171 163 160
280 273 278 275 259 261 253 246 254 259 271 269 271 263 253 244 251 256 252 233 243 245 224 210 192 184 194 193 193 195 191 191 186 197 180 162 155 142 164 169 165 169 163 160
284 278 275 275 258 243 251 241 245 254 263 264 255 259 252 234 232 234 240 214 228 240 226 220 202 190 199 196 193 190 184 192 191 199 183 174 169 172 180 165 171 161 159 148
267 289 292 276 264 260 265 251 251 249 248 251 254 265 269 245 224 220 226 217 215 227 227 222 199 193 197 201 185 191 186 194 195 196 186 176 187 183 159 156 162 156 149 143
271 285 275 266 276 267 247 227 251 242 233 239 245 241 255 246 247 213 214 216 220 216 220 227 218 194 196 202 192 189 188 191 193 190 179 194 192 172 157 158 164 167 154 140
308 286 310 286 300 270 189 173 213 205 208 233 227 228 237 245 230 229 207 207 219 217 212 214 216 193 191 193 191 191 190 190 189 190 190 197 192 171 169 168 172 163 157 165
338 321 351 103 282 305 203 191 211 218 227 238 222 241 228 222 251 272 218 204 208 211 208 205 204 200 185 194 191 186 190 185 186 189 194 197 187 176 176 175 165 166 160 157
308 286 308 290 281 220 160 206 223 334 264 269 210 228 245 218 223 231 235 228 202 207 204 207 197 198 187 193 195 187 189 188 186 185 189 193 191 179 179 167 158 155 135 126
282 295 326 323 306 182 283 308 219 227 269 220 223 204 210 193 209 223 202 213 214 200 197 201 192 192 186 194 194 187 188 188 187 184 183 181 171 167 156 151 150 138 130 125
301 255 293 319 7 304 197 210 221 248 275 317 355 129 358 12 89 180 194 212 214 226 198 196 183 182 180 182 182 185 185 180 182 181 172 162 153 148 141 136 133 129 124 124
355 291 292 299 299 335 320 271 215 232 226 215 303 63 18 6 340 309 276 223 223 217 190 130 94 100 82 116 143 152 165 156 163 156 144 138 130 126 125 118 115 118 122 122
2 305 299 336 160 58 345 287 248 255 298 255 280 80 14 5 355 348 242 73 76 82 85 86 78 77 77 71 69 71 66 86 93 100 108 110 116 118 121 121 117 125 123 122
325 263 265 292 300 305 323 348 15 191 219 273 41 4 354 353 357 17 44 64 75 70 71 80 76 73 70 69 70 75 74 66 80 86 90 88 95 103 109 100 112 114 113 130
320 281 294 295 281 273 31 7 15 22 350 21 34 42 353 343 3 49 60 69 76 71 67 67 75 75 74 73 70 73 73 82 88 84 81 85 88 100 98 101 102 115 95 118
332 282 314 288 278 336 46 10 4 26 10 1 5 43 3 351 43 59 60 67 72 73 74 71 73 74 72 79 74 73 73 82 84 95 92 91 77 77 74 82 92 78 79 86
309 315 330 294 330 319 38 11 355 27 25 352 10 9 9 33 47 45 59 67 69 73 72 72 71 69 71 73 65 66 77 75 72 70 73 71 77 74 74 70 72 78 95 124
289 315 288 294 313 45 63 18 358 350 26 14 8 6 20 58 63 47 38 57 62 65 66 63 67 66 62 69 70 65 58 54 61 54 56 54 62 74 70 80 92 96 90 84
301 302 312 319 320 346 358 357 343 346 26 10 4 9 23 66 74 39 25 44 56 57 59 56 53 57 52 46 58 63 53 49 47 41 42 48 48 65 72 67 62 53 52 45
337 261 275 312 25 14 352 337 331 301 33 356 5 18 25 25 69 33 19 37 44 45 45 48 47 49 47 39 52 60 47 45 35 28 30 30 35 46 48 46 44 28 23 8
336 356 16 356 29 53 352 334 332 47 336 344 8 26 42 52 54 46 45 44 49 51 49 47 51 50 35 33 51 59 49 42 27 32 41 40 36 41 29 41 33 27 19 3
347 340 3 346 24 10 352 351 41 343 8 1 21 27 50 56 55 50 51 48 45 46 44 45 52 46 32 28 45 53 49 26 33 39 43 40 34 32 26 32 24 32 23 26
40 15 354 24 46 29 333 14 16 16 26 23 46 50 59 65 61 57 60 53 51 51 49 46 54 56 40 33 35 49 23 22 31 39 40 36 32 34 27 29 24 30 26 23
89 18 37 205 20 60 24 12 15 12 33 33 45 51 55 65 59 61 58 52 51 46 45 45 51 49 43 31 32 32 17 8 35 42 32 30 33 27 29 30 27 32 25 18
8 316 355 74 43 192 52 20 12 26 35 60 50 46 56 64 58 61 59 52 50 49 40 37 43 43 38 29 31 22 14 10 33 36 32 26 28 28 25 26 30 30 26 30
20 4 352 71 35 11 39 16 26 44 42 39 54 58 49 60 70 71 68 59 56 52 45 46 46 47 40 34 29 18 12 14 26 38 31 25 25 22 25 22 15 24 27 33